TimeEDT,TemperatureF,Dew PointF,Humidity,Sea Level PressureIn,VisibilityMPH,Wind Direction,Wind SpeedMPH,Gust SpeedMPH,PrecipitationIn,Events,Conditions,WindDirDegrees,DateUTC
12:53 AM,70.0,46.9,44,29.96,10.0,NNE,10.4,18.4,N/A,,Clear,30,2011-10-02 04:53:00
1:53 AM,68.0,46.9,47,29.96,10.0,NE,8.1,-,N/A,,Clear,40,2011-10-02 05:53:00
2:53 AM,66.0,48.9,54,29.96,10.0,NE,5.8,-,N/A,,Clear,40,2011-10-02 06:53:00
3:53 AM,64.9,46.0,50,29.95,10.0,NNE,8.1,-,N/A,,Clear,30,2011-10-02 07:53:00
4:53 AM,64.0,46.0,52,29.95,10.0,NNE,6.9,-,N/A,,Clear,30,2011-10-02 08:53:00
5:53 AM,62.6,46.4,55,29.96,10.0,NE,4.6,-,N/A,,Clear,40,2011-10-02 09:53:00
6:53 AM,61.0,48.0,62,29.98,10.0,NNE,4.6,-,N/A,,Clear,30,2011-10-02 10:53:00
7:53 AM,62.6,48.2,59,29.99,10.0,NE,5.8,-,N/A,,Clear,40,2011-10-02 11:53:00
8:34 AM,64.4,48.2,56,30.00,10.0,NE,5.8,-,N/A,,Partly Cloudy,40,2011-10-02 12:34:00
8:53 AM,66.0,46.9,50,30.01,10.0,NE,5.8,-,N/A,,Partly Cloudy,40,2011-10-02 12:53:00
9:53 AM,71.6,46.4,41,30.03,10.0,NE,9.2,-,N/A,,Clear,50,2011-10-02 13:53:00
10:53 AM,75.2,48.2,38,30.03,10.0,NE,9.2,-,N/A,,Clear,50,2011-10-02 14:53:00
11:53 AM,78.1,52.0,40,30.04,10.0,NNE,9.2,-,N/A,,Clear,20,2011-10-02 15:53:00
12:53 PM,80.1,51.1,36,30.02,10.0,NW,3.5,-,N/A,,Clear,310,2011-10-02 16:53:00
1:53 PM,80.1,48.9,34,30.00,10.0,Calm,Calm,-,N/A,,Clear,0,2011-10-02 17:53:00
2:53 PM,82.0,50.0,33,29.99,10.0,North,8.1,-,N/A,,Clear,350,2011-10-02 18:53:00
3:53 PM,80.1,48.9,34,29.98,10.0,Variable,6.9,-,N/A,,Clear,0,2011-10-02 19:53:00
4:53 PM,80.1,50.0,35,29.97,10.0,North,9.2,-,N/A,,Clear,360,2011-10-02 20:53:00
5:53 PM,78.1,51.1,39,29.98,10.0,NNW,10.4,-,N/A,,Clear,340,2011-10-02 21:53:00
6:51 PM,75.2,51.8,44,29.98,10.0,NNW,9.2,-,N/A,,Partly Cloudy,330,2011-10-02 22:51:00
6:53 PM,75.0,52.0,44,29.98,10.0,NNW,9.2,-,N/A,,Partly Cloudy,340,2011-10-02 22:53:00
7:53 PM,72.0,52.0,49,29.99,10.0,North,5.8,-,N/A,,Clear,350,2011-10-02 23:53:00
8:53 PM,71.1,50.0,47,30.01,10.0,North,8.1,-,N/A,,Clear,360,2011-10-03 00:53:00
9:53 PM,71.1,50.0,47,30.02,10.0,North,8.1,-,N/A,,Clear,10,2011-10-03 01:53:00
10:53 PM,69.1,53.1,57,30.03,10.0,North,5.8,-,N/A,,Clear,10,2011-10-03 02:53:00
11:53 PM,66.9,54.0,63,30.04,10.0,ENE,4.6,-,N/A,,Clear,60,2011-10-03 03:53:00